Time,TemperatureF,DewpointF,PressureIn,WindDirection,WindDirectionDegrees,WindSpeedMPH,WindSpeedGustMPH,Humidity,HourlyPrecipIn,Conditions,Clouds,dailyrainin,SoftwareType,DateUTC
2013-04-21 15:08:00,55.9,55.7,30.54,NNE,22,3.1,-999.0,99,-99.99,,,0.00,Acu-Link.com,2013-04-21 19:08:00,
2013-04-21 15:23:00,53.2,53.0,30.54,WNW,292,0.0,-999.0,99,-99.99,,,0.00,Acu-Link.com,2013-04-21 19:23:00,
2013-04-21 15:39:00,52.5,52.2,30.54,NW,315,2.7,-999.0,99,-99.99,,,0.00,Acu-Link.com,2013-04-21 19:39:00,
2013-04-21 15:54:00,52.9,52.6,30.54,SE,135,6.3,-999.0,99,-99.99,,,0.00,Acu-Link.com,2013-04-21 19:54:00,
2013-04-21 16:09:00,50.9,50.6,30.55,ESE,112,5.1,-999.0,99,-99.99,,,0.00,Acu-Link.com,2013-04-21 20:09:00,
2013-04-21 16:24:00,49.6,49.4,30.55,South,180,2.7,-999.0,99,-99.99,,,0.00,Acu-Link.com,2013-04-21 20:24:00,
2013-04-21 16:40:00,49.8,49.6,30.55,South,180,4.7,-999.0,99,-99.99,,,0.00,Acu-Link.com,2013-04-21 20:40:00,
2013-04-21 16:55:00,47.8,47.6,30.56,ENE,67,5.1,-999.0,99,-99.99,,,0.00,Acu-Link.com,2013-04-21 20:55:00,
2013-04-21 17:10:00,48.6,48.3,30.56,ESE,112,3.1,-999.0,99,-99.99,,,0.00,Acu-Link.com,2013-04-21 21:10:00,
2013-04-21 17:25:00,47.5,47.2,30.57,SSE,157,5.1,-999.0,99,-99.99,,,0.00,Acu-Link.com,2013-04-21 21:25:00,
2013-04-21 17:40:00,47.7,47.4,30.57,SSE,157,5.1,-999.0,99,-99.99,,,0.00,Acu-Link.com,2013-04-21 21:40:00,
2013-04-21 17:56:00,47.1,46.9,30.58,South,180,4.7,-999.0,99,-99.99,,,0.00,Acu-Link.com,2013-04-21 21:56:00,
2013-04-21 18:11:00,47.7,47.4,30.58,East,90,2.7,-999.0,99,-99.99,,,0.00,Acu-Link.com,2013-04-21 22:11:00,
2013-04-21 18:26:00,46.9,46.7,30.59,South,180,6.3,-999.0,99,-99.99,,,0.00,Acu-Link.com,2013-04-21 22:26:00,
2013-04-21 18:41:00,45.9,45.6,30.59,North,0,4.7,-999.0,99,-99.99,,,0.00,Acu-Link.com,2013-04-21 22:41:00,
2013-04-21 18:56:00,44.8,44.5,30.60,South,180,5.8,-999.0,99,-99.99,,,0.00,Acu-Link.com,2013-04-21 22:56:00,
2013-04-21 19:12:00,44.2,44.0,30.60,ESE,112,2.7,-999.0,99,-99.99,,,0.00,Acu-Link.com,2013-04-21 23:12:00,
2013-04-21 19:27:00,43.3,42.8,30.61,ESE,112,3.8,-999.0,98,-99.99,,,0.00,Acu-Link.com,2013-04-21 23:27:00,
2013-04-21 19:42:00,42.4,41.9,30.62,SSE,157,0.0,-999.0,98,-99.99,,,0.00,Acu-Link.com,2013-04-21 23:42:00,
2013-04-21 19:57:00,41.7,41.2,30.63,SSE,157,0.0,-999.0,98,-99.99,,,0.00,Acu-Link.com,2013-04-21 23:57:00,
2013-04-21 20:12:00,41.0,40.7,30.63,ESE,112,0.0,-999.0,99,-99.99,,,0.00,Acu-Link.com,2013-04-22 00:12:00,
2013-04-21 20:28:00,41.2,40.9,30.65,SE,135,2.2,-999.0,99,-99.99,,,0.00,Acu-Link.com,2013-04-22 00:28:00,
2013-04-21 20:43:00,41.0,40.7,30.65,SSE,157,1.1,-999.0,99,-99.99,,,0.00,Acu-Link.com,2013-04-22 00:43:00,
2013-04-21 20:58:00,40.6,40.4,30.66,ENE,67,2.2,-999.0,99,-99.99,,,0.00,Acu-Link.com,2013-04-22 00:58:00,
2013-04-21 21:13:00,40.3,40.0,30.66,South,180,2.2,-999.0,99,-99.99,,,0.00,Acu-Link.com,2013-04-22 01:13:00,
2013-04-21 21:29:00,39.7,39.5,30.66,ESE,112,0.0,-999.0,99,-99.99,,,0.00,Acu-Link.com,2013-04-22 01:29:00,
2013-04-21 21:44:00,39.6,39.3,30.66,ENE,67,0.0,-999.0,99,-99.99,,,0.00,Acu-Link.com,2013-04-22 01:44:00,
2013-04-21 21:59:00,39.4,39.1,30.67,SSE,157,0.0,-999.0,99,-99.99,,,0.00,Acu-Link.com,2013-04-22 01:59:00,
2013-04-21 22:14:00,39.0,38.8,30.68,ESE,112,2.2,-999.0,99,-99.99,,,0.00,Acu-Link.com,2013-04-22 02:14:00,
2013-04-21 22:29:00,39.2,38.9,30.68,SSE,157,0.0,-999.0,99,-99.99,,,0.00,Acu-Link.com,2013-04-22 02:29:00,
2013-04-21 22:45:00,39.0,38.8,30.68,ESE,112,0.0,-999.0,99,-99.99,,,0.00,Acu-Link.com,2013-04-22 02:45:00,
2013-04-21 23:00:00,38.3,38.0,30.68,ESE,112,0.0,-999.0,99,-99.99,,,0.00,Acu-Link.com,2013-04-22 03:00:00,
2013-04-21 23:15:00,38.5,38.2,30.67,ESE,112,0.0,-999.0,99,-99.99,,,0.00,Acu-Link.com,2013-04-22 03:15:00,
2013-04-21 23:30:00,37.9,37.7,30.67,ESE,112,0.0,-999.0,99,-99.99,,,0.00,Acu-Link.com,2013-04-22 03:30:00,
2013-04-21 23:45:00,37.4,36.9,30.67,ESE,112,0.0,-999.0,98,-99.99,,,0.00,Acu-Link.com,2013-04-22 03:45:00,